{"data":{"norad_id":65363,"intl_designator":"2025-190N","name":"STARLINK-34797","alt_names":[],"object_type":"PAYLOAD","status":"ACTIVE","operator":null,"country":"US","launch_date":"2025-08-28","launch_site_code":"AFETR","launch_vehicle":null,"mission":null,"orbit_class":"UNKNOWN","rcs_meters":null,"size_class":null,"mass_kg":null,"dimensions":null,"purposes":["comms"],"wikipedia_slug":null,"has_3d_model":false,"image_url":null,"decayed_at":null,"tle_current":{"epoch":"2026-09-20T10:59:04.728768Z","epoch_age_seconds":121303,"freshness":"FRESH","line1":"1 65363U 25190N   26263.45769362  .00020169  00000+0  60669-3 0  9998","line2":"2 65363  53.1600 340.0568 0001332  93.3568 266.7587 15.34387588 59624","mean_motion":15.34387588,"eccentricity":0.0001332,"inclination_deg":53.16,"raan_deg":340.0568,"arg_perigee_deg":93.3568,"mean_anomaly_deg":266.7587,"bstar":0.00060669,"rev_number":5962,"period_min":93.848517236572,"perigee_km":461.82892670158,"apogee_km":463.65133636942,"semimajor_km":6840.8771315355,"source":"CELESTRAK","updated_at":"2026-09-21T09:00:35.577405Z"}}}